Location: LDNL
(36.4545°S, 141.6685°E)
Time: 08:22:13
(UTC+10:00)

Tiangong - Pass Details

Date: 31 May 2024
Orbit: 377 x 384 km, 41.5° (Epoch: 24 June)

Event Time Altitude Azimuth Distance (km) Brightness Sun altitude
Rises 17:56:31 0° 259° (WSW) 2,309 2.9 -6.3°
Reaches altitude 10° 17:59:00 10° 277° (W) 1,444 2.3 -6.8°
Maximum altitude 18:01:24 19° 324° (NW) 1,015 0.9 -7.3°
Drops below altitude 10° 18:03:47 10° 12° (NNE) 1,428 0.9 -7.7°
Sets 18:06:14 0° 31° (NNE) 2,274 1.7 -8.2°
